Location: *
(39.8042°N, 89.4611°W)
Time: 01:25:54
(UTC+00:00)

Daily predictions for brighter satellites

Satellite Brightness Start Highest point End
(mag) Time Altitude Azimuth Time Altitude Azimuth Time Altitude Azimuth
Cosmos 1703 3.7 00:01:12 10° SSW 00:05:08 65° W 00:09:06 10° N
ATLAS CENTAUR R/B 1.0 00:03:56 10° NNW 00:07:52 81° ENE 00:11:32 10° SE
Cosmos 1455 3.0 00:04:30 10° NNW 00:08:12 54° W 00:11:51 10° S
CSL-04 Debris 4.4 00:05:57 10° SE 00:11:04 47° ENE 00:16:15 10° N
FengYun 1-2 T 4.3 00:09:20 10° SSE 00:14:58 88° WSW 00:20:40 10° NNW
Cosmos 1727 Rocket 3.9 00:12:29 10° N 00:18:42 77° E 00:24:51 10° S
COSMO-SKYMED 1 2.9 00:16:36 10° N 00:20:55 68° WNW 00:25:13 10° SSW
Cosmos 1842 Rocket 3.6 00:16:42 10° N 00:21:09 62° E 00:25:34 10° SSE
Cosmos 1371 Rocket 4.3 00:20:24 10° S 00:25:16 44° ESE 00:29:44 12° NE
ATLAS 3B R/B 4.0 00:22:27 10° SE 00:26:18 16° ESE 00:26:32 16° ESE
Cosmos 407 Rocket 4.1 00:21:54 10° N 00:26:43 35° ENE 00:31:26 10° SE
Cosmos 1437 3.5 00:25:01 10° SSE 00:27:21 29° ESE 00:27:21 29° ESE
CSL-04 Rocket 3.7 00:23:01 10° SSE 00:28:28 67° ENE 00:34:00 10° N
Timation 1 Rocket 4.5 00:22:42 10° S 00:28:28 53° ESE 00:33:50 12° NE
Cosmos 1356 Rocket 3.7 00:26:03 10° NNW 00:30:07 70° W 00:34:15 10° S
CZ-2D R/B 3.3 00:26:46 10° SSE 00:30:30 55° ENE 00:34:18 10° N
FALCON 9 R/B 4.0 00:11:01 10° SW 00:33:29 48° S 00:38:26 20° ESE
USA 267 4.4 00:28:50 10° NE 00:34:40 36° NNW 00:40:29 10° W
YAOGAN 6 4.4 00:31:21 10° SSW 00:34:42 34° W 00:38:04 10° NNW
NOSS 3-2 (C) 4.0 00:30:01 10° S 00:34:59 33° ESE 00:37:14 25° ENE
USA 116 3.1 00:33:03 10° N 00:36:09 82° W 00:39:18 10° SSW
Akebono 4.3 00:33:16 10° NNW 00:36:35 83° WSW 00:38:26 15° SSE
Cosmos 1869 3.6 00:36:22 10° N 00:40:09 40° ENE 00:43:51 10° SSE
CENTAUR R/B 3.2 00:36:32 10° SSE 00:41:20 29° ESE 00:42:27 27° E
DELTA 2 R/B (1) 4.3 00:37:33 10° W 00:42:54 48° SSW 00:47:13 16° SE
Meteor 2-2 Rocket 4.3 00:37:46 10° N 00:43:48 68° E 00:49:43 10° SSE
Cosmos 1939 Rocket 2.7 00:42:04 10° SSE 00:45:59 88° E 00:50:00 10° NNW
Ariane Rocket 3.3 00:41:19 10° SE 00:46:02 42° ENE 00:50:48 10° N
Cosmos 2221 2.4 00:41:51 10° N 00:46:10 88° E 00:50:29 10° S
H-2A ROCKET BODY 3.9 00:40:45 10° WSW 00:46:30 18° SW 00:49:18 10° S
Centaur D AC-28 4.2 00:24:50 10° WSW 00:47:02 33° S 00:51:19 17° SE
Cosmos 1076 Rocket 3.4 00:43:49 10° S 00:48:05 66° E 00:51:47 14° NNE
Cosmos 1821 Rocket 3.9 00:44:18 10° S 00:50:41 85° E 00:57:00 10° N
NOSS 3-2 (A) 3.2 00:45:37 10° SSW 00:51:13 73° ESE 00:55:00 24° NE
Haruka 4.0 00:48:25 10° SW 00:51:31 30° SSE 00:53:22 23° SE
Cosmos 1624 Rocket 3.9 00:46:37 10° S 00:51:51 69° ESE 00:55:28 20° NNE
In-Cosmos 22 Rocket 4.2 00:50:16 10° S 00:55:48 58° E 01:01:02 11° NNE
IRS-1A Rocket 4.4 00:50:30 10° SE 00:56:00 50° ENE 01:01:25 10° N
Cosmos 44 Rocket 4.5 00:51:59 10° WSW 00:56:28 38° NW 01:00:12 14° NNE
Cosmos 614 Rocket 3.8 00:53:00 10° NNW 00:58:14 74° ENE 01:03:27 10° SSE
Cosmos 1605 Rocket 4.3 00:56:18 10° SSE 01:02:08 42° E 01:04:05 33° NE
BREEZE-M DEB (TANK) 3.5 00:59:53 10° WSW 01:03:05 43° NW 01:03:05 43° NW
USA 234 3.5 01:01:06 10° SE 01:07:34 67° SW 01:14:06 10° NW
Cosmos 2058 2.8 01:03:30 10° S 01:07:38 86° W 01:09:14 37° N
Cosmos 2056 Rocket 3.5 01:02:49 10° SSW 01:08:04 88° WNW 01:11:25 24° NNE
Cosmos 1023 Rocket 4.3 01:11:16 10° NNW 01:16:32 70° ENE 01:17:09 63° ESE
ADEOS Rocket 3.4 01:09:54 10° NNE 01:16:54 83° WNW 01:24:31 10° SSW
Cosmos 2263 Rocket 2.7 01:13:21 10° SW 01:18:48 56° WNW 01:22:50 18° N
Cosmos 1934 Rocket 3.8 01:13:45 10° S 01:19:49 89° E 01:25:54 10° N
OAO 3 Rocket 3.7 01:15:30 10° WSW 01:19:53 45° S 01:19:53 45° S
Cosmos 1603 4.0 01:14:21 10° NNW 01:19:58 66° WSW 01:25:30 10° S
OAO 2 Rocket 3.7 01:16:11 10° WSW 01:20:53 46° S 01:20:58 46° S
Cosmos 2123 Rocket 3.8 01:15:28 10° N 01:21:48 78° E 01:28:01 10° S
Cosmos 1140 Rocket 3.3 01:22:40 10° NNW 01:27:57 86° ENE 01:28:09 82° SE
CZ-4 R/B 4.5 01:28:13 10° SW 01:30:45 16° W 01:33:20 10° NW
USA 238 DEB 4.1 01:26:10 10° SW 01:32:42 57° NW 01:36:22 28° NNE
USA 238 4.1 01:26:16 10° SW 01:32:48 58° NW 01:36:25 28° NNE
H-2A R/B 3.7 01:47:07 23° N 01:47:07 23° N 01:49:02 10° NNW
Atlas Centaur 2 3.8 01:40:41 10° WSW 01:43:45 19° SSW 01:43:45 19° SSW
Cosmos 1943 3.9 01:42:34 10° NNW 01:48:02 50° WSW 01:50:58 26° S
ATLAS 3B R/B 3.3 02:09:23 10° SSW 02:13:52 45° SW 02:13:52 45° SW
CENTAUR R/B 3.6 02:25:51 10° WSW 02:29:42 38° W 02:29:42 38° W
ATLAS 3B R/B 3.8 09:48:27 37° NE 09:48:42 38° NE 09:55:03 10° ESE
CZ-3 R/B 4.0 09:50:03 49° SW 09:55:44 57° SSW 10:05:58 10° ESE
NOSS 3-2 (C) 4.1 10:00:04 75° E 10:00:04 75° E 10:08:01 10° SE
CENTAUR R/B 3.3 10:03:36 62° N 10:04:55 71° NE 10:13:41 10° SE
NOSS 3-4 (A) 4.4 10:12:40 38° NNE 10:12:40 38° NNE 10:16:25 10° NNE
NOSS 3-4 (C) 4.4 10:12:44 38° NNE 10:12:44 38° NNE 10:16:32 10° NNE
Cosmos 2322 Rocket 3.0 10:13:24 48° E 10:13:24 48° E 10:18:12 10° NNE
Cosmos 2263 Rocket 3.1 10:14:20 45° ESE 10:14:20 45° ESE 10:18:26 10° SE
Lacrosse 5 rocket 4.2 10:34:27 11° NNE 10:34:27 11° NNE 10:35:41 10° NNE
USA 32 4.4 10:36:06 23° N 10:39:24 63° E 10:44:35 10° SSE
Cosmos 2344 4.5 10:41:28 31° NNW 10:41:28 31° NNW 10:47:53 10° NNE
ATLAS 2AS CENTAUR R/B 3.3 10:45:07 46° NW 10:45:07 46° NW 10:52:35 10° NNE
Cosmos 962 Rocket 4.3 10:44:37 60° NNW 10:45:47 76° W 10:52:08 10° S
Cosmos 1371 Rocket 4.1 10:52:34 41° N 10:54:27 75° ENE 10:59:47 10° SSE
Lacrosse 5 2.8 10:56:00 36° N 10:56:00 36° N 10:59:35 10° NNE
STARLINK 1054 4.4 10:56:20 47° NE 10:56:20 47° NE 10:59:22 10° NE
Cosmos 2360 Rocket 2.7 10:50:22 10° S 10:55:54 59° ESE 11:01:29 10° NNE
SL-16 R/B 2.3 10:58:04 54° NNW 10:58:04 54° NNW 11:02:57 10° NNE
FALCON 9 DEB 4.4 11:00:46 41° ESE 11:00:46 41° ESE 11:03:14 10° ESE
STARLINK 1062 4.2 11:01:08 52° NNE 11:01:08 52° NNE 11:04:21 10° NE
Cosmos 1980 Rocket 4.4 11:06:15 11° NNW 11:06:15 11° NNW 11:06:40 10° N
Cosmos 2058 Rocket 3.4 11:04:53 51° N 11:04:53 51° N 11:08:11 10° N
STARLINK 1053 4.0 11:05:58 55° NNE 11:05:58 55° NNE 11:09:23 10° NE
SJ-12 4.1 11:04:20 10° NNE 11:08:24 71° E 11:12:29 10° S
STARLINK 1061 3.9 11:10:42 56° N 11:10:42 56° N 11:14:18 10° NE
Okean O Rocket 3.3 11:06:40 10° NNE 11:10:42 34° E 11:14:42 10° SSE
SL-8 Rocket 3.8 11:06:41 10° NNW 11:12:49 70° W 11:18:55 10° S
COSMO-SKYMED 1 2.5 11:10:22 10° SSE 11:14:42 84° ENE 11:17:43 20° N
STARLINK 1067 3.8 11:15:28 56° NNW 11:15:28 56° NNW 11:19:14 10° NE
STARLINK-60 4.5 11:16:33 30° S 11:16:33 30° S 11:18:32 10° SSE
CZ-4B R/B 4.4 11:10:55 10° NNE 11:16:05 42° E 11:21:08 10° S
STARLINK 1058 3.8 11:20:13 53° NNW 11:20:13 53° NNW 11:24:11 10° NE
BREEZE M DEB (TANK) 3.9 11:20:45 27° N 11:20:45 27° N 11:24:05 10° NE
MOS 1-B 4.4 11:14:52 10° NNE 11:20:41 81° ESE 11:26:30 10° SSW
Cosmos 1624 Rocket 3.8 11:18:11 28° NNW 11:20:55 73° WSW 11:26:04 10° S
METEOR-M 4.1 11:17:50 10° NNE 11:23:13 90° E 11:28:34 10° SSW
STARLINK 1043 3.8 11:24:56 49° NW 11:25:01 49° NW 11:29:04 10° NE
Cosmos 2181 Rocket 4.2 11:20:01 10° SSW 11:25:59 47° WNW 11:32:07 10° N
Cosmos 2237 4.1 11:21:17 10° SSW 11:26:59 81° WNW 11:32:44 10° NNE
USA 116 4.2 11:24:06 10° SSE 11:28:28 65° ENE 11:32:18 10° N
Helios 1A Rocket 4.5 11:25:14 10° NNE 11:29:07 38° E 11:32:59 10° SSE
STARLINK 1065 3.9 11:29:46 44° NW 11:30:05 45° NNW 11:34:05 10° NE
ADEOS Rocket 4.1 11:25:08 10° SE 11:30:13 39° ENE 11:35:37 10° N
STARLINK-29 3.0 11:29:55 67° W 11:30:17 77° SW 11:33:47 10° SE
ALOS 2.1 11:25:50 10° N 11:30:29 70° WNW 11:35:07 10° SSW
BREEZE-M DEB (TANK) 4.1 11:31:17 24° NNW 11:33:13 33° NNE 11:42:51 10° ENE
STARLINK-52 3.0 11:32:55 59° WNW 11:33:29 82° SW 11:37:00 10° SE
STARLINK 1063 4.0 11:34:33 40° NW 11:35:04 42° NNW 11:39:02 10° NE
COSMOS 2428 4.1 11:31:42 10° S 11:36:58 40° ESE 11:42:17 10° NE
Cosmos 2056 Rocket 3.7 11:33:46 20° NW 11:37:26 53° WSW 11:42:38 10° S
Cosmos 1437 3.3 11:35:49 11° N 11:38:42 52° E 11:41:39 10° SSE
ATLAS 3B R/B 3.0 11:35:45 24° WNW 11:39:28 46° WSW 11:46:04 10° S
ATLAS 2A CENTAUR R/B 3.9 11:37:33 10° S 11:39:52 15° SSE 11:43:50 10° ESE
STARLINK 1064 4.2 11:39:18 36° WNW 11:40:03 39° NNW 11:43:58 10° NE
RESURS DK-1 3.5 11:40:55 26° NW 11:40:55 26° NW 11:43:45 10° N
STARLINK 1041 4.3 11:44:06 32° WNW 11:45:05 36° NNW 11:48:57 10° NE
Cosmos 1821 Rocket 4.3 11:41:16 10° N 11:47:23 68° E 11:53:26 10° SSE
Meteor 2-12 Rocket 4.4 11:41:35 10° N 11:47:42 79° W 11:53:49 10° S
STARLINK 1038 4.4 11:48:54 28° WNW 11:50:05 34° NNW 11:53:53 10° NE
Nadezhda 3 Rocket 4.0 11:44:23 10° S 11:50:33 87° E 11:56:47 10° N
Cosmos 2278 Rocket 4.5 11:49:09 10° N 11:53:19 20° NE 11:57:27 10° E
STARLINK 1046 4.5 11:53:40 25° WNW 11:55:05 32° NNW 11:58:50 10° NE
